カタログに戻る

STARLINK-36698

運用中通信SSO
NORAD 67709·PAYLOAD·🇺🇸 United States

打ち上げ Feb 7, 2026 から Vandenberg Space Force Base

Loading…

次のパス (今後24時間)

TLE

最新Source: CelesTrak SupGP

元期: Sep 15, 2026, 03:47 UTC

1 67709C 26025S   26258.15812500 -.00002026  00000+0 -62874-4 0  2589
2 67709  97.2859   8.2020 0001335  85.1114 193.7516 15.33441505    19

AllMySatでSTARLINK-36698をリアルタイム追跡

Download on the App Store